START_TIME,STEP,MOV.,H8,t_acc.,H43,t_acc.,M25,t_acc.,H9,t_acc.
1979-07-06 21:00:30.150 ,0,0,0.,12.0,0.,12.0,0.,12.0,0.,12.0
1979-07-06 21:00:42.150 ,0,0,0.,12.0,0.,12.0,0.,12.0,0.,12.0
1979-07-06 21:00:54.150 ,0,0,1.,12.0,0.,12.0,0.,12.0,0.,12.0
1979-07-06 21:01:06.150 ,0,0,2.,12.0,0.,12.0,0.,12.0,0.,12.0
1979-07-06 21:01:18.150 ,0,0,0.,12.0,0.,12.0,0.,12.0,0.,12.0
1979-07-06 21:01:30.150 ,0,0,0.,12.0,0.,12.0,0.,12.0,0.,12.0
1979-07-06 21:01:42.150 ,1,0,0.,12.0,0.,12.0,0.,12.0,0.,12.0
1979-07-06 21:01:54.150 ,1,0,0.,12.0,0.,12.0,0.,12.0,0.,12.0
1979-07-06 21:02:06.150 ,1,0,0.,12.0,0.,12.0,0.,12.0,0.,12.0
1979-07-06 21:02:18.150 ,1,0,0.,12.0,0.,12.0,0.,12.0,0.,12.0
1979-07-06 21:02:30.150 ,2,0,0.,12.0,0.,12.0,0.,12.0,0.,12.0
1979-07-06 21:02:42.150 ,2,0,0.,12.0,0.,12.0,0.,12.0,0.,12.0
1979-07-06 21:02:54.150 ,2,0,1.,12.0,0.,12.0,0.,12.0,0.,12.0
1979-07-06 21:03:06.150 ,2,0,1.,12.0,0.,12.0,0.,12.0,0.,12.0
1979-07-06 21:03:18.150 ,3,0,0.,12.0,0.,12.0,0.,12.0,0.,12.0
1979-07-06 21:03:30.150 ,3,0,1.,12.0,0.,12.0,0.,12.0,0.,12.0
1979-07-06 21:03:42.150 ,3,0,1.,12.0,0.,12.0,0.,12.0,0.,12.0
1979-07-06 21:03:54.150 ,3,0,1.,12.0,0.,12.0,0.,12.0,0.,12.0
1979-07-06 21:04:06.150 ,4,0,0.,12.0,0.,12.0,0.,12.0,0.,12.0
1979-07-06 21:04:18.150 ,4,0,0.,12.0,0.,12.0,0.,12.0,0.,12.0
1979-07-06 21:04:30.150 ,4,0,1.,12.0,0.,12.0,0.,12.0,0.,12.0
1979-07-06 21:04:42.150 ,4,0,0.,12.0,0.,12.0,0.,12.0,0.,12.0
1979-07-06 21:04:54.150 ,5,0,1.,12.0,0.,12.0,0.,12.0,0.,12.0
1979-07-06 21:05:06.150 ,5,0,0.,12.0,0.,12.0,0.,12.0,0.,12.0
1979-07-06 21:05:18.150 ,5,0,1.,12.0,0.,12.0,0.,12.0,0.,12.0
1979-07-06 21:05:30.150 ,5,0,1.,12.0,0.,12.0,0.,12.0,0.,12.0
1979-07-06 21:05:42.150 ,6,0,0.,12.0,0.,12.0,0.,12.0,0.,12.0
1979-07-06 21:05:54.150 ,6,0,1.,12.0,0.,12.0,0.,12.0,0.,12.0
1979-07-06 21:06:06.150 ,6,0,2.,12.0,0.,12.0,0.,12.0,0.,12.0
1979-07-06 21:06:18.150 ,6,0,0.,12.0,0.,12.0,0.,12.0,0.,12.0
1979-07-06 21:06:30.150 ,7,0,1.,12.0,0.,12.0,0.,12.0,0.,12.0
1979-07-06 21:06:42.150 ,7,0,0.,12.0,0.,12.0,0.,12.0,0.,12.0
1979-07-06 21:06:54.150 ,7,0,0.,12.0,0.,12.0,0.,12.0,0.,12.0
1979-07-06 21:07:06.150 ,7,0,0.,12.0,0.,12.0,0.,12.0,0.,12.0
1979-07-06 21:07:18.150 ,3,1,1.,12.0,0.,12.0,0.,12.0,0.,12.0
1979-07-06 21:07:30.150 ,3,1,1.,12.0,0.,12.0,0.,12.0,0.,12.0
1979-07-06 21:07:42.150 ,0,1,0.,12.0,0.,12.0,0.,12.0,0.,12.0
1979-07-06 21:07:54.150 ,0,1,0.,12.0,0.,12.0,0.,12.0,0.,12.0
1979-07-06 21:08:06.150 ,4,1,2.,12.0,0.,12.0,0.,12.0,0.,12.0
1979-07-06 21:08:18.150 ,4,1,0.,12.0,0.,12.0,0.,12.0,0.,12.0
1979-07-06 21:08:30.150 ,7,1,1.,12.0,0.,12.0,0.,12.0,0.,12.0
1979-07-06 21:08:42.150 ,7,1,2.,12.0,0.,12.0,0.,12.0,0.,12.0
1979-07-06 21:08:54.150 ,3,1,2.,12.0,0.,12.0,0.,12.0,0.,12.0
1979-07-06 21:09:06.150 ,3,1,0.,12.0,0.,12.0,0.,12.0,0.,12.0
1979-07-06 21:09:18.150 ,0,1,0.,12.0,0.,12.0,0.,12.0,0.,12.0
1979-07-06 21:09:30.150 ,0,1,0.,12.0,0.,12.0,0.,12.0,0.,12.0
1979-07-06 21:09:42.150 ,4,1,2.,12.0,0.,12.0,0.,12.0,0.,12.0
1979-07-06 21:09:54.150 ,4,1,1.,12.0,0.,12.0,0.,12.0,0.,12.0
1979-07-06 21:10:06.150 ,7,1,1.,12.0,0.,12.0,0.,12.0,0.,12.0
1979-07-06 21:10:18.150 ,7,1,0.,12.0,0.,12.0,0.,12.0,0.,12.0
1979-07-06 21:10:30.150 ,3,1,1.,12.0,0.,12.0,0.,12.0,0.,12.0
1979-07-06 21:10:42.150 ,3,1,0.,12.0,0.,12.0,0.,12.0,0.,12.0
1979-07-06 21:10:54.150 ,0,1,0.,12.0,0.,12.0,0.,12.0,0.,12.0
1979-07-06 21:11:06.150 ,0,1,1.,12.0,0.,12.0,0.,12.0,0.,12.0
1979-07-06 21:11:18.150 ,4,1,0.,12.0,0.,12.0,0.,12.0,0.,12.0
1979-07-06 21:11:30.150 ,4,1,0.,12.0,0.,12.0,0.,12.0,0.,12.0
1979-07-06 21:11:42.150 ,7,1,1.,12.0,0.,12.0,0.,12.0,0.,12.0
1979-07-06 21:11:54.150 ,7,1,0.,12.0,0.,12.0,0.,12.0,0.,12.0
1979-07-06 21:12:06.150 ,3,1,4.,12.0,0.,12.0,0.,12.0,0.,12.0
1979-07-06 21:12:18.150 ,3,1,1.,12.0,0.,12.0,0.,12.0,0.,12.0
1979-07-06 21:12:30.150 ,0,1,0.,12.0,0.,12.0,0.,12.0,0.,12.0
1979-07-06 21:12:42.150 ,0,1,1.,12.0,0.,12.0,0.,12.0,0.,12.0
1979-07-06 21:12:54.150 ,4,1,1.,12.0,0.,12.0,0.,12.0,0.,12.0
1979-07-06 21:13:06.150 ,4,1,2.,12.0,0.,12.0,0.,12.0,0.,12.0
1979-07-06 21:13:18.150 ,7,1,0.,12.0,0.,12.0,0.,12.0,0.,12.0
1979-07-06 21:13:30.150 ,7,1,0.,12.0,0.,12.0,0.,12.0,0.,12.0
1979-07-06 21:13:42.150 ,3,1,2.,12.0,0.,12.0,0.,12.0,0.,12.0
1979-07-06 21:13:54.150 ,3,1,0.,12.0,0.,12.0,0.,12.0,0.,12.0
1979-07-06 21:14:06.150 ,0,1,0.,12.0,0.,12.0,0.,12.0,0.,12.0
1979-07-06 21:14:18.150 ,0,1,1.,12.0,0.,12.0,0.,12.0,0.,12.0
1979-07-06 21:14:30.150 ,4,1,1.,12.0,0.,12.0,0.,12.0,0.,12.0
1979-07-06 21:14:42.150 ,4,1,3.,12.0,0.,12.0,0.,12.0,0.,12.0
1979-07-06 21:14:54.150 ,7,1,2.,12.0,0.,12.0,0.,12.0,0.,12.0
1979-07-06 21:15:06.150 ,7,1,1.,12.0,0.,12.0,0.,12.0,0.,12.0
1979-07-06 21:15:18.150 ,3,1,1.,12.0,0.,12.0,0.,12.0,0.,12.0
1979-07-06 21:15:30.150 ,3,1,2.,12.0,0.,12.0,0.,12.0,0.,12.0
1979-07-06 21:15:42.150 ,0,1,1.,12.0,0.,12.0,0.,12.0,0.,12.0
1979-07-06 21:15:54.150 ,0,1,0.,12.0,0.,12.0,0.,12.0,0.,12.0
1979-07-06 21:16:06.150 ,4,1,1.,12.0,0.,12.0,0.,12.0,0.,12.0
1979-07-06 21:16:18.150 ,4,1,0.,12.0,0.,12.0,0.,12.0,0.,12.0
1979-07-06 21:16:30.150 ,7,1,0.,12.0,0.,12.0,0.,12.0,0.,12.0
1979-07-06 21:16:42.150 ,7,1,0.,12.0,0.,12.0,0.,12.0,0.,12.0
1979-07-06 21:16:54.150 ,3,1,0.,12.0,0.,12.0,0.,12.0,0.,12.0
1979-07-06 21:17:06.150 ,3,1,2.,12.0,0.,12.0,0.,12.0,0.,12.0
1979-07-06 21:17:18.150 ,0,1,3.,12.0,0.,12.0,0.,12.0,0.,12.0
1979-07-06 21:17:30.150 ,0,1,1.,12.0,0.,12.0,0.,12.0,0.,12.0
1979-07-06 21:17:42.150 ,0,0,1.,12.0,0.,12.0,0.,12.0,0.,12.0
1979-07-06 21:17:54.150 ,0,0,0.,12.0,0.,12.0,0.,12.0,0.,12.0
1979-07-06 21:18:06.150 ,0,0,2.,12.0,0.,12.0,0.,12.0,0.,12.0
1979-07-06 21:18:18.150 ,0,0,1.,12.0,0.,12.0,0.,12.0,0.,12.0
1979-07-06 21:18:30.150 ,5,0,0.,12.0,0.,12.0,0.,12.0,0.,12.0
1979-07-06 21:18:42.150 ,5,0,1.,12.0,0.,12.0,0.,12.0,0.,12.0
1979-07-06 21:18:54.150 ,5,0,2.,12.0,0.,12.0,0.,12.0,0.,12.0
1979-07-06 21:19:06.150 ,5,0,2.,12.0,0.,12.0,0.,12.0,0.,12.0
1979-07-06 21:19:18.150 ,4,0,0.,12.0,0.,12.0,0.,12.0,0.,12.0
1979-07-06 21:19:30.150 ,4,0,2.,12.0,0.,12.0,0.,12.0,0.,12.0
1979-07-06 21:19:42.150 ,4,0,1.,12.0,0.,12.0,0.,12.0,0.,12.0
1979-07-06 21:19:54.150 ,4,0,4.,12.0,0.,12.0,0.,12.0,0.,12.0
1979-07-06 21:20:06.150 ,3,0,1.,12.0,0.,12.0,0.,12.0,0.,12.0
1979-07-06 21:20:18.150 ,3,0,0.,12.0,0.,12.0,0.,12.0,0.,12.0
1979-07-06 21:20:30.150 ,3,0,2.,12.0,0.,12.0,0.,12.0,0.,12.0
1979-07-06 21:20:42.150 ,3,0,0.,12.0,0.,12.0,0.,12.0,0.,12.0
1979-07-06 21:20:54.150 ,2,0,0.,12.0,0.,12.0,0.,12.0,0.,12.0
1979-07-06 21:21:06.150 ,2,0,0.,12.0,0.,12.0,0.,12.0,0.,12.0
1979-07-06 21:21:18.150 ,2,0,0.,12.0,0.,12.0,0.,12.0,0.,12.0
1979-07-06 21:21:30.150 ,2,0,1.,12.0,0.,12.0,0.,12.0,0.,12.0
1979-07-06 21:21:42.150 ,1,0,3.,12.0,0.,12.0,0.,12.0,0.,12.0
1979-07-06 21:21:54.150 ,1,0,0.,12.0,0.,12.0,0.,12.0,0.,12.0
1979-07-06 21:22:06.150 ,1,0,0.,12.0,0.,12.0,0.,12.0,0.,12.0
1979-07-06 21:22:18.150 ,1,0,1.,12.0,0.,12.0,0.,12.0,0.,12.0
1979-07-06 21:22:30.150 ,0,0,0.,12.0,0.,12.0,0.,12.0,0.,12.0
1979-07-06 21:22:42.150 ,0,0,2.,12.0,0.,12.0,0.,12.0,0.,12.0
1979-07-06 21:22:54.150 ,0,0,1.,12.0,0.,12.0,0.,12.0,0.,12.0
1979-07-06 21:23:06.150 ,0,0,0.,12.0,0.,12.0,0.,12.0,0.,12.0
1979-07-06 21:23:18.150 ,0,0,0.,12.0,0.,12.0,0.,12.0,0.,12.0
1979-07-06 21:23:30.150 ,0,0,1.,12.0,0.,12.0,0.,12.0,0.,12.0
1979-07-06 21:23:42.150 ,0,0,0.,12.0,0.,12.0,0.,12.0,0.,12.0
1979-07-06 21:23:54.150 ,0,0,1.,12.0,0.,12.0,0.,12.0,0.,12.0
1979-07-06 21:24:06.150 ,1,0,0.,12.0,0.,12.0,0.,12.0,0.,12.0
1979-07-06 21:24:18.150 ,1,0,1.,12.0,0.,12.0,0.,12.0,0.,12.0
1979-07-06 21:24:30.150 ,1,0,0.,12.0,0.,12.0,0.,12.0,0.,12.0
1979-07-06 21:24:42.150 ,1,0,0.,12.0,0.,12.0,0.,12.0,0.,12.0
1979-07-06 21:24:54.150 ,2,0,0.,12.0,0.,12.0,0.,12.0,0.,12.0
1979-07-06 21:25:06.150 ,2,0,0.,12.0,0.,12.0,0.,12.0,0.,12.0
1979-07-06 21:25:18.150 ,2,0,1.,12.0,0.,12.0,0.,12.0,0.,12.0
1979-07-06 21:25:30.150 ,2,0,0.,12.0,0.,12.0,0.,12.0,0.,12.0
1979-07-06 21:25:42.150 ,3,0,1.,12.0,0.,12.0,0.,12.0,0.,12.0
1979-07-06 21:25:54.150 ,3,0,1.,12.0,0.,12.0,0.,12.0,0.,12.0
1979-07-06 21:26:06.150 ,3,0,1.,12.0,0.,12.0,0.,12.0,0.,12.0
1979-07-06 21:26:18.150 ,3,0,0.,12.0,0.,12.0,0.,12.0,0.,12.0
1979-07-06 21:26:30.150 ,4,0,0.,12.0,1.,12.0,0.,12.0,0.,12.0
1979-07-06 21:26:42.150 ,4,0,0.,12.0,0.,12.0,0.,12.0,0.,12.0
1979-07-06 21:26:54.150 ,4,0,0.,12.0,0.,12.0,0.,12.0,0.,12.0
1979-07-06 21:27:06.150 ,4,0,1.,12.0,0.,12.0,0.,12.0,0.,12.0
1979-07-06 21:27:18.150 ,5,0,1.,12.0,0.,12.0,0.,12.0,0.,12.0
1979-07-06 21:27:30.150 ,5,0,0.,12.0,0.,12.0,0.,12.0,0.,12.0
1979-07-06 21:27:42.150 ,5,0,2.,12.0,0.,12.0,0.,12.0,0.,12.0
1979-07-06 21:27:54.150 ,5,0,2.,12.0,0.,12.0,0.,12.0,0.,12.0
1979-07-06 21:28:06.150 ,6,0,0.,12.0,0.,12.0,0.,12.0,0.,12.0
1979-07-06 21:28:18.150 ,6,0,0.,12.0,1.,12.0,0.,12.0,0.,12.0
1979-07-06 21:28:30.150 ,6,0,1.,12.0,0.,12.0,0.,12.0,0.,12.0
1979-07-06 21:28:42.150 ,6,0,0.,12.0,0.,12.0,0.,12.0,0.,12.0
1979-07-06 21:28:54.150 ,7,0,0.,12.0,0.,12.0,0.,12.0,0.,12.0
1979-07-06 21:29:06.150 ,7,0,0.,12.0,0.,12.0,0.,12.0,0.,12.0
1979-07-06 21:29:18.150 ,7,0,0.,12.0,0.,12.0,0.,12.0,0.,12.0
1979-07-06 21:29:30.150 ,7,0,0.,12.0,0.,12.0,0.,12.0,0.,12.0
1979-07-06 21:29:42.150 ,7,0,0.,12.0,0.,12.0,0.,12.0,0.,12.0
1979-07-06 21:29:54.150 ,7,0,0.,12.0,0.,12.0,0.,12.0,0.,12.0
1979-07-06 21:30:06.150 ,7,0,0.,12.0,0.,12.0,0.,12.0,0.,12.0
1979-07-06 21:30:18.150 ,7,0,0.,12.0,0.,12.0,0.,12.0,0.,12.0
1979-07-06 21:30:30.150 ,6,0,0.,12.0,0.,12.0,0.,12.0,0.,12.0
1979-07-06 21:30:42.150 ,6,0,1.,12.0,0.,12.0,0.,12.0,0.,12.0
1979-07-06 21:30:54.150 ,6,0,1.,12.0,1.,12.0,0.,12.0,0.,12.0
1979-07-06 21:31:06.150 ,6,0,1.,12.0,0.,12.0,0.,12.0,0.,12.0
1979-07-06 21:31:18.150 ,5,0,2.,12.0,0.,12.0,0.,12.0,0.,12.0
1979-07-06 21:31:30.150 ,5,0,1.,12.0,0.,12.0,0.,12.0,0.,12.0
1979-07-06 21:31:42.150 ,5,0,1.,12.0,0.,12.0,0.,12.0,0.,12.0
1979-07-06 21:31:54.150 ,5,0,1.,12.0,0.,12.0,0.,12.0,0.,12.0
1979-07-06 21:32:06.150 ,4,0,1.,12.0,0.,12.0,0.,12.0,0.,12.0
1979-07-06 21:32:18.150 ,4,0,0.,12.0,0.,12.0,0.,12.0,0.,12.0
1979-07-06 21:32:30.150 ,4,0,3.,12.0,0.,12.0,0.,12.0,0.,12.0
1979-07-06 21:32:42.150 ,4,0,0.,12.0,0.,12.0,0.,12.0,0.,12.0
1979-07-06 21:32:54.150 ,3,0,2.,12.0,0.,12.0,0.,12.0,0.,12.0
1979-07-06 21:33:06.150 ,3,0,1.,12.0,0.,12.0,0.,12.0,0.,12.0
1979-07-06 21:33:18.150 ,3,0,0.,12.0,0.,12.0,0.,12.0,0.,12.0
1979-07-06 21:33:30.150 ,3,0,1.,12.0,0.,12.0,0.,12.0,0.,12.0
1979-07-06 21:33:42.150 ,2,0,0.,12.0,0.,12.0,0.,12.0,0.,12.0
1979-07-06 21:33:54.150 ,2,0,0.,12.0,0.,12.0,0.,12.0,0.,12.0
1979-07-06 21:34:06.150 ,2,0,1.,12.0,0.,12.0,0.,12.0,0.,12.0
1979-07-06 21:34:18.150 ,2,0,0.,12.0,0.,12.0,0.,12.0,0.,12.0
1979-07-06 21:34:30.150 ,1,0,0.,12.0,0.,12.0,0.,12.0,0.,12.0
1979-07-06 21:34:42.150 ,1,0,0.,12.0,0.,12.0,0.,12.0,0.,12.0
1979-07-06 21:34:54.150 ,1,0,0.,12.0,0.,12.0,0.,12.0,0.,12.0
1979-07-06 21:35:06.150 ,1,0,0.,12.0,0.,12.0,0.,12.0,0.,12.0
1979-07-06 21:35:18.150 ,0,0,0.,12.0,0.,12.0,0.,12.0,0.,12.0
1979-07-06 21:35:30.150 ,0,0,0.,12.0,0.,12.0,0.,12.0,0.,12.0
1979-07-06 21:35:42.150 ,0,0,0.,12.0,0.,12.0,0.,12.0,0.,12.0
1979-07-06 21:35:54.150 ,0,0,1.,12.0,0.,12.0,0.,12.0,0.,12.0
1979-07-06 21:36:06.150 ,0,0,0.,12.0,0.,12.0,0.,12.0,0.,12.0
1979-07-06 21:36:18.150 ,0,0,2.,12.0,0.,12.0,0.,12.0,0.,12.0
1979-07-06 21:36:30.150 ,0,0,1.,12.0,0.,12.0,0.,12.0,0.,12.0
1979-07-06 21:36:42.150 ,0,0,1.,12.0,0.,12.0,0.,12.0,0.,12.0
1979-07-06 21:36:54.150 ,1,0,3.,12.0,0.,12.0,0.,12.0,0.,12.0
1979-07-06 21:37:06.150 ,1,0,1.,12.0,0.,12.0,0.,12.0,0.,12.0
1979-07-06 21:37:18.150 ,1,0,0.,12.0,0.,12.0,0.,12.0,0.,12.0
1979-07-06 21:37:30.150 ,1,0,1.,12.0,0.,12.0,0.,12.0,0.,12.0
1979-07-06 21:37:42.150 ,2,0,0.,12.0,0.,12.0,0.,12.0,0.,12.0
1979-07-06 21:37:54.150 ,2,0,0.,12.0,0.,12.0,0.,12.0,0.,12.0
1979-07-06 21:38:06.150 ,2,0,0.,12.0,0.,12.0,0.,12.0,0.,12.0
1979-07-06 21:38:18.150 ,2,0,0.,12.0,0.,12.0,0.,12.0,0.,12.0
1979-07-06 21:38:30.150 ,3,0,0.,12.0,0.,12.0,0.,12.0,0.,12.0
1979-07-06 21:38:42.150 ,3,0,1.,12.0,0.,12.0,0.,12.0,0.,12.0
1979-07-06 21:38:54.150 ,3,0,1.,12.0,0.,12.0,0.,12.0,0.,12.0
1979-07-06 21:39:06.150 ,3,0,0.,12.0,0.,12.0,0.,12.0,0.,12.0
1979-07-06 21:39:18.150 ,4,0,2.,12.0,0.,12.0,0.,12.0,0.,12.0
1979-07-06 21:39:30.150 ,4,0,1.,12.0,0.,12.0,0.,12.0,0.,12.0
1979-07-06 21:39:42.150 ,4,0,0.,12.0,0.,12.0,0.,12.0,0.,12.0
1979-07-06 21:39:54.150 ,4,0,0.,12.0,0.,12.0,0.,12.0,0.,12.0
1979-07-06 21:40:06.150 ,5,0,0.,12.0,0.,12.0,0.,12.0,0.,12.0
1979-07-06 21:40:18.150 ,5,0,0.,12.0,0.,12.0,0.,12.0,0.,12.0
1979-07-06 21:40:30.150 ,5,0,3.,12.0,0.,12.0,0.,12.0,0.,12.0
1979-07-06 21:40:42.150 ,5,0,1.,12.0,0.,12.0,0.,12.0,0.,12.0
1979-07-06 21:40:54.150 ,6,0,1.,12.0,0.,12.0,0.,12.0,0.,12.0
1979-07-06 21:41:06.150 ,6,0,1.,12.0,0.,12.0,0.,12.0,0.,12.0
1979-07-06 21:41:18.150 ,6,0,0.,12.0,0.,12.0,0.,12.0,0.,12.0
1979-07-06 21:41:30.150 ,6,0,0.,12.0,0.,12.0,0.,12.0,0.,12.0
1979-07-06 21:41:42.150 ,7,0,2.,12.0,0.,12.0,0.,12.0,0.,12.0
1979-07-06 21:41:54.150 ,7,0,0.,12.0,0.,12.0,0.,12.0,0.,12.0
1979-07-06 21:42:06.150 ,7,0,0.,12.0,0.,12.0,0.,12.0,0.,12.0
1979-07-06 21:42:18.150 ,7,0,0.,12.0,0.,12.0,0.,12.0,0.,12.0
1979-07-06 21:42:30.150 ,7,0,0.,12.0,0.,12.0,0.,12.0,0.,12.0
1979-07-06 21:42:42.150 ,7,0,0.,12.0,0.,12.0,0.,12.0,0.,12.0
1979-07-06 21:42:54.150 ,7,0,0.,12.0,0.,12.0,0.,12.0,0.,12.0
1979-07-06 21:43:06.150 ,7,0,0.,12.0,0.,12.0,0.,12.0,0.,12.0
1979-07-06 21:43:18.150 ,6,0,0.,12.0,0.,12.0,0.,12.0,0.,12.0
1979-07-06 21:43:30.150 ,6,0,0.,12.0,0.,12.0,0.,12.0,0.,12.0
1979-07-06 21:43:42.150 ,6,0,1.,12.0,0.,12.0,0.,12.0,0.,12.0
1979-07-06 21:43:54.150 ,6,0,1.,12.0,0.,12.0,0.,12.0,0.,12.0
1979-07-06 21:44:06.150 ,5,0,1.,12.0,0.,12.0,0.,12.0,0.,12.0
1979-07-06 21:44:18.150 ,5,0,2.,12.0,0.,12.0,0.,12.0,0.,12.0
1979-07-06 21:44:30.150 ,5,0,0.,12.0,0.,12.0,0.,12.0,0.,12.0
1979-07-06 21:44:42.150 ,5,0,2.,12.0,0.,12.0,0.,12.0,0.,12.0
1979-07-06 21:44:54.150 ,4,0,3.,12.0,0.,12.0,0.,12.0,0.,12.0
1979-07-06 21:45:06.150 ,4,0,3.,12.0,0.,12.0,0.,12.0,0.,12.0
1979-07-06 21:45:18.150 ,4,0,2.,12.0,0.,12.0,0.,12.0,0.,12.0
1979-07-06 21:45:30.150 ,4,0,2.,12.0,0.,12.0,0.,12.0,0.,12.0
1979-07-06 21:45:42.150 ,3,0,1.,12.0,0.,12.0,0.,12.0,0.,12.0
1979-07-06 21:45:54.150 ,3,0,0.,12.0,0.,12.0,0.,12.0,0.,12.0
1979-07-06 21:46:06.150 ,3,0,1.,12.0,0.,12.0,0.,12.0,0.,12.0
1979-07-06 21:46:18.150 ,3,0,1.,12.0,0.,12.0,0.,12.0,0.,12.0
1979-07-06 21:46:30.150 ,2,0,2.,12.0,0.,12.0,0.,12.0,0.,12.0
1979-07-06 21:46:42.150 ,2,0,0.,12.0,0.,12.0,0.,12.0,0.,12.0
1979-07-06 21:46:54.150 ,2,0,0.,12.0,0.,12.0,0.,12.0,0.,12.0
1979-07-06 21:47:06.150 ,2,0,0.,12.0,0.,12.0,0.,12.0,0.,12.0
1979-07-06 21:47:18.150 ,1,0,0.,12.0,0.,12.0,0.,12.0,0.,12.0
1979-07-06 21:47:30.150 ,1,0,1.,12.0,0.,12.0,0.,12.0,0.,12.0
1979-07-06 21:47:42.150 ,1,0,0.,12.0,0.,12.0,0.,12.0,0.,12.0
1979-07-06 21:47:54.150 ,1,0,1.,12.0,0.,12.0,0.,12.0,0.,12.0
1979-07-06 21:48:06.150 ,0,0,2.,12.0,0.,12.0,0.,12.0,0.,12.0
1979-07-06 21:48:18.150 ,0,0,0.,12.0,0.,12.0,0.,12.0,0.,12.0
1979-07-06 21:48:30.150 ,0,0,0.,12.0,0.,12.0,0.,12.0,0.,12.0
1979-07-06 21:48:42.150 ,0,0,0.,12.0,0.,12.0,0.,12.0,0.,12.0
1979-07-06 21:48:54.150 ,0,0,1.,12.0,0.,12.0,0.,12.0,0.,12.0
1979-07-06 21:49:06.150 ,0,0,0.,12.0,0.,12.0,0.,12.0,0.,12.0
1979-07-06 21:49:18.150 ,0,0,0.,12.0,0.,12.0,0.,12.0,0.,12.0
1979-07-06 21:49:30.150 ,0,0,1.,12.0,0.,12.0,0.,12.0,0.,12.0
1979-07-06 21:49:42.150 ,1,0,0.,12.0,0.,12.0,0.,12.0,0.,12.0
1979-07-06 21:49:54.150 ,1,0,0.,12.0,0.,12.0,0.,12.0,0.,12.0
1979-07-06 21:50:06.150 ,1,0,0.,12.0,0.,12.0,0.,12.0,0.,12.0
1979-07-06 21:50:18.150 ,1,0,1.,12.0,0.,12.0,0.,12.0,0.,12.0
1979-07-06 21:50:30.150 ,2,0,0.,12.0,0.,12.0,0.,12.0,0.,12.0
1979-07-06 21:50:42.150 ,2,0,0.,12.0,0.,12.0,0.,12.0,0.,12.0
1979-07-06 21:50:54.150 ,2,0,2.,12.0,0.,12.0,0.,12.0,0.,12.0
1979-07-06 21:51:06.150 ,2,0,0.,12.0,0.,12.0,0.,12.0,0.,12.0
1979-07-06 21:51:18.150 ,3,0,1.,12.0,0.,12.0,0.,12.0,0.,12.0
1979-07-06 21:51:30.150 ,3,0,2.,12.0,0.,12.0,0.,12.0,0.,12.0
1979-07-06 21:51:42.150 ,3,0,2.,12.0,0.,12.0,0.,12.0,0.,12.0
1979-07-06 21:51:54.150 ,3,0,2.,12.0,0.,12.0,0.,12.0,0.,12.0
1979-07-06 21:52:06.150 ,4,0,0.,12.0,0.,12.0,0.,12.0,0.,12.0
1979-07-06 21:52:18.150 ,4,0,1.,12.0,0.,12.0,0.,12.0,0.,12.0
1979-07-06 21:52:30.150 ,4,0,0.,12.0,0.,12.0,0.,12.0,0.,12.0
1979-07-06 21:52:42.150 ,4,0,1.,12.0,0.,12.0,0.,12.0,0.,12.0
1979-07-06 21:52:54.150 ,5,0,1.,12.0,0.,12.0,0.,12.0,0.,12.0
1979-07-06 21:53:06.150 ,5,0,1.,12.0,0.,12.0,0.,12.0,0.,12.0
1979-07-06 21:53:18.150 ,5,0,0.,12.0,0.,12.0,0.,12.0,0.,12.0
1979-07-06 21:53:30.150 ,5,0,2.,12.0,0.,12.0,0.,12.0,0.,12.0
1979-07-06 21:53:42.150 ,6,0,1.,12.0,0.,12.0,0.,12.0,0.,12.0
1979-07-06 21:53:54.150 ,6,0,2.,12.0,0.,12.0,0.,12.0,0.,12.0
1979-07-06 21:54:06.150 ,6,0,1.,12.0,0.,12.0,0.,12.0,0.,12.0
1979-07-06 21:54:18.150 ,6,0,1.,12.0,0.,12.0,0.,12.0,0.,12.0
1979-07-06 21:54:30.150 ,7,0,0.,12.0,0.,12.0,0.,12.0,0.,12.0
1979-07-06 21:54:42.150 ,7,0,0.,12.0,0.,12.0,0.,12.0,0.,12.0
1979-07-06 21:54:54.150 ,7,0,0.,12.0,0.,12.0,0.,12.0,0.,12.0
1979-07-06 21:55:06.150 ,7,0,0.,12.0,0.,12.0,0.,12.0,0.,12.0
1979-07-06 21:55:18.150 ,7,0,0.,12.0,0.,12.0,0.,12.0,0.,12.0
1979-07-06 21:55:30.150 ,7,0,0.,12.0,0.,12.0,0.,12.0,0.,12.0
1979-07-06 21:55:42.150 ,7,0,0.,12.0,0.,12.0,0.,12.0,0.,12.0
1979-07-06 21:55:54.150 ,7,0,0.,12.0,0.,12.0,0.,12.0,0.,12.0
1979-07-06 21:56:06.150 ,6,0,0.,12.0,0.,12.0,0.,12.0,0.,12.0
1979-07-06 21:56:18.150 ,6,0,0.,12.0,0.,12.0,0.,12.0,0.,12.0
1979-07-06 21:56:30.150 ,6,0,0.,12.0,0.,12.0,0.,12.0,0.,12.0
1979-07-06 21:56:42.150 ,6,0,1.,12.0,0.,12.0,0.,12.0,0.,12.0
1979-07-06 21:56:54.150 ,5,0,0.,12.0,0.,12.0,0.,12.0,0.,12.0
1979-07-06 21:57:06.150 ,5,0,2.,12.0,0.,12.0,0.,12.0,0.,12.0
1979-07-06 21:57:18.150 ,5,0,1.,12.0,0.,12.0,0.,12.0,0.,12.0
1979-07-06 21:57:30.150 ,5,0,1.,12.0,0.,12.0,0.,12.0,0.,12.0
1979-07-06 21:57:42.150 ,4,0,0.,12.0,0.,12.0,0.,12.0,0.,12.0
1979-07-06 21:57:54.150 ,4,0,0.,12.0,0.,12.0,0.,12.0,0.,12.0
1979-07-06 21:58:06.150 ,4,0,0.,12.0,0.,12.0,0.,12.0,0.,12.0
1979-07-06 21:58:18.150 ,4,0,0.,12.0,0.,12.0,0.,12.0,0.,12.0
1979-07-06 21:58:30.150 ,3,0,0.,12.0,0.,12.0,0.,12.0,0.,12.0
1979-07-06 21:58:42.150 ,3,0,0.,12.0,0.,12.0,0.,12.0,0.,12.0
1979-07-06 21:58:54.150 ,3,0,0.,12.0,0.,12.0,0.,12.0,0.,12.0
1979-07-06 21:59:06.150 ,3,0,2.,12.0,0.,12.0,0.,12.0,0.,12.0
1979-07-06 21:59:18.150 ,2,0,0.,12.0,0.,12.0,0.,12.0,0.,12.0
1979-07-06 21:59:30.150 ,2,0,0.,12.0,0.,12.0,0.,12.0,0.,12.0
1979-07-06 21:59:42.150 ,2,0,0.,12.0,0.,12.0,0.,12.0,0.,12.0
1979-07-06 21:59:54.150 ,2,0,0.,12.0,0.,12.0,0.,12.0,0.,12.0
1979-07-06 22:00:06.150 ,1,0,1.,12.0,0.,12.0,0.,12.0,0.,12.0
1979-07-06 22:00:18.150 ,1,0,0.,12.0,0.,12.0,0.,12.0,0.,12.0
1979-07-06 22:00:30.150 ,1,0,0.,12.0,0.,12.0,0.,12.0,0.,12.0
1979-07-06 22:00:42.150 ,1,0,0.,12.0,0.,12.0,0.,12.0,0.,12.0
1979-07-06 22:00:54.150 ,0,0,1.,12.0,0.,12.0,0.,12.0,0.,12.0
1979-07-06 22:01:06.150 ,0,0,0.,12.0,0.,12.0,0.,12.0,0.,12.0
1979-07-06 22:01:18.150 ,0,0,1.,12.0,0.,12.0,0.,12.0,0.,12.0
1979-07-06 22:01:30.150 ,0,0,0.,12.0,0.,12.0,0.,12.0,0.,12.0
1979-07-06 22:01:42.150 ,0,0,0.,12.0,0.,12.0,0.,12.0,0.,12.0
1979-07-06 22:01:54.150 ,0,0,0.,12.0,0.,12.0,0.,12.0,0.,12.0
1979-07-06 22:02:06.150 ,0,0,0.,12.0,0.,12.0,0.,12.0,0.,12.0
1979-07-06 22:02:18.150 ,0,0,0.,12.0,0.,12.0,0.,12.0,0.,12.0
1979-07-06 22:02:30.150 ,1,0,0.,12.0,0.,12.0,0.,12.0,0.,12.0
1979-07-06 22:02:42.150 ,1,0,1.,12.0,0.,12.0,0.,12.0,0.,12.0
1979-07-06 22:02:54.150 ,1,0,0.,12.0,0.,12.0,0.,12.0,0.,12.0
1979-07-06 22:03:06.150 ,1,0,0.,12.0,0.,12.0,0.,12.0,0.,12.0
1979-07-06 22:03:18.150 ,2,0,0.,12.0,0.,12.0,0.,12.0,0.,12.0
1979-07-06 22:03:30.150 ,2,0,0.,12.0,0.,12.0,0.,12.0,0.,12.0
1979-07-06 22:03:42.150 ,2,0,0.,12.0,0.,12.0,0.,12.0,0.,12.0
1979-07-06 22:03:54.150 ,2,0,0.,12.0,0.,12.0,0.,12.0,0.,12.0
1979-07-06 22:04:06.150 ,3,0,0.,12.0,0.,12.0,0.,12.0,0.,12.0
1979-07-06 22:04:18.150 ,3,0,0.,12.0,0.,12.0,0.,12.0,0.,12.0
1979-07-06 22:04:30.150 ,3,0,1.,12.0,0.,12.0,0.,12.0,0.,12.0
1979-07-06 22:04:42.150 ,3,0,0.,12.0,0.,12.0,0.,12.0,0.,12.0
1979-07-06 22:04:54.150 ,4,0,0.,12.0,0.,12.0,0.,12.0,0.,12.0
1979-07-06 22:05:06.150 ,4,0,1.,12.0,0.,12.0,0.,12.0,0.,12.0
1979-07-06 22:05:18.150 ,4,0,0.,12.0,0.,12.0,0.,12.0,0.,12.0
1979-07-06 22:05:30.150 ,4,0,2.,12.0,0.,12.0,0.,12.0,0.,12.0
1979-07-06 22:05:42.150 ,5,0,2.,12.0,0.,12.0,0.,12.0,0.,12.0
1979-07-06 22:05:54.150 ,5,0,0.,12.0,0.,12.0,0.,12.0,0.,12.0
1979-07-06 22:06:06.150 ,5,0,1.,12.0,0.,12.0,0.,12.0,0.,12.0
1979-07-06 22:06:18.150 ,5,0,1.,12.0,0.,12.0,0.,12.0,0.,12.0
1979-07-06 22:06:30.150 ,6,0,3.,12.0,0.,12.0,0.,12.0,0.,12.0
1979-07-06 22:06:42.150 ,6,0,1.,12.0,0.,12.0,0.,12.0,0.,12.0
1979-07-06 22:06:54.150 ,6,0,2.,12.0,0.,12.0,0.,12.0,0.,12.0
1979-07-06 22:07:06.150 ,6,0,3.,12.0,0.,12.0,0.,12.0,0.,12.0
1979-07-06 22:07:18.150 ,7,0,3.,12.0,0.,12.0,0.,12.0,0.,12.0
1979-07-06 22:07:30.150 ,7,0,0.,12.0,0.,12.0,0.,12.0,0.,12.0
1979-07-06 22:07:42.150 ,7,0,0.,12.0,0.,12.0,0.,12.0,0.,12.0
1979-07-06 22:07:54.150 ,7,0,0.,12.0,0.,12.0,0.,12.0,0.,12.0
1979-07-06 22:08:06.150 ,7,0,0.,12.0,0.,12.0,0.,12.0,0.,12.0
1979-07-06 22:08:18.150 ,7,0,0.,12.0,0.,12.0,0.,12.0,0.,12.0
1979-07-06 22:08:30.150 ,7,0,0.,12.0,0.,12.0,0.,12.0,0.,12.0
1979-07-06 22:08:42.150 ,7,0,0.,12.0,0.,12.0,0.,12.0,0.,12.0
1979-07-06 22:08:54.150 ,6,0,0.,12.0,0.,12.0,0.,12.0,0.,12.0
1979-07-06 22:09:06.150 ,6,0,2.,12.0,0.,12.0,0.,12.0,0.,12.0
1979-07-06 22:09:18.150 ,0,0,3.,12.0,0.,12.0,0.,12.0,0.,12.0
1979-07-06 22:09:30.150 ,0,0,2.,12.0,0.,12.0,0.,12.0,0.,12.0
1979-07-06 22:09:42.150 ,5,0,0.,12.0,0.,12.0,0.,12.0,0.,12.0
1979-07-06 22:09:54.150 ,5,0,0.,12.0,0.,12.0,0.,12.0,0.,12.0
1979-07-06 22:10:06.150 ,5,0,4.,12.0,0.,12.0,0.,12.0,0.,12.0
1979-07-06 22:10:18.150 ,5,0,0.,12.0,0.,12.0,0.,12.0,0.,12.0
1979-07-06 22:10:30.150 ,4,0,0.,12.0,0.,12.0,0.,12.0,0.,12.0
1979-07-06 22:10:42.150 ,4,0,0.,12.0,0.,12.0,0.,12.0,0.,12.0
1979-07-06 22:10:54.150 ,4,0,1.,12.0,0.,12.0,0.,12.0,0.,12.0
1979-07-06 22:11:06.150 ,4,0,1.,12.0,0.,12.0,0.,12.0,0.,12.0
1979-07-06 22:11:18.150 ,3,0,0.,12.0,0.,12.0,0.,12.0,0.,12.0
1979-07-06 22:11:30.150 ,3,0,0.,12.0,0.,12.0,0.,12.0,0.,12.0
1979-07-06 22:11:42.150 ,3,0,0.,12.0,0.,12.0,0.,12.0,0.,12.0
1979-07-06 22:11:54.150 ,3,0,1.,12.0,0.,12.0,0.,12.0,0.,12.0
1979-07-06 22:12:06.150 ,2,0,0.,12.0,0.,12.0,0.,12.0,0.,12.0
1979-07-06 22:12:18.150 ,2,0,0.,12.0,0.,12.0,0.,12.0,0.,12.0
1979-07-06 22:12:30.150 ,2,0,0.,12.0,0.,12.0,0.,12.0,0.,12.0
1979-07-06 22:12:42.150 ,2,0,1.,12.0,0.,12.0,0.,12.0,0.,12.0
1979-07-06 22:12:54.150 ,1,0,0.,12.0,0.,12.0,0.,12.0,0.,12.0
1979-07-06 22:13:06.150 ,1,0,0.,12.0,0.,12.0,0.,12.0,0.,12.0
1979-07-06 22:13:18.150 ,1,0,0.,12.0,0.,12.0,0.,12.0,0.,12.0
1979-07-06 22:13:30.150 ,1,0,1.,12.0,0.,12.0,0.,12.0,0.,12.0
1979-07-06 22:13:42.150 ,0,0,0.,12.0,0.,12.0,0.,12.0,0.,12.0
1979-07-06 22:13:54.150 ,0,0,0.,12.0,0.,12.0,0.,12.0,0.,12.0
1979-07-06 22:14:06.150 ,0,0,1.,12.0,0.,12.0,0.,12.0,0.,12.0
1979-07-06 22:14:18.150 ,0,0,1.,12.0,0.,12.0,0.,12.0,0.,12.0
1979-07-06 22:14:30.150 ,0,0,0.,12.0,0.,12.0,0.,12.0,0.,12.0
1979-07-06 22:14:42.150 ,0,0,0.,12.0,0.,12.0,0.,12.0,0.,12.0
1979-07-06 22:14:54.150 ,0,0,0.,12.0,0.,12.0,0.,12.0,0.,12.0
1979-07-06 22:15:06.150 ,0,0,0.,12.0,0.,12.0,0.,12.0,0.,12.0
1979-07-06 22:15:18.150 ,1,0,0.,12.0,0.,12.0,0.,12.0,0.,12.0
1979-07-06 22:15:30.150 ,1,0,0.,12.0,0.,12.0,0.,12.0,0.,12.0
1979-07-06 22:15:42.150 ,1,0,0.,12.0,0.,12.0,0.,12.0,0.,12.0
1979-07-06 22:15:54.150 ,1,0,0.,12.0,0.,12.0,0.,12.0,0.,12.0
1979-07-06 22:16:06.150 ,2,0,0.,12.0,0.,12.0,0.,12.0,0.,12.0
1979-07-06 22:16:18.150 ,2,0,1.,12.0,0.,12.0,0.,12.0,0.,12.0
1979-07-06 22:16:30.150 ,2,0,1.,12.0,0.,12.0,0.,12.0,0.,12.0
1979-07-06 22:16:42.150 ,2,0,0.,12.0,0.,12.0,0.,12.0,0.,12.0
1979-07-06 22:16:54.150 ,3,0,1.,12.0,0.,12.0,0.,12.0,0.,12.0
1979-07-06 22:17:06.150 ,3,0,0.,12.0,0.,12.0,0.,12.0,0.,12.0
1979-07-06 22:17:18.150 ,3,0,1.,12.0,0.,12.0,0.,12.0,0.,12.0
1979-07-06 22:17:30.150 ,3,0,1.,12.0,0.,12.0,0.,12.0,0.,12.0